SR9WXP Weather Reports


time (UTC)temp
F
wind
direction
speed
knots
gust
knots
rain 1hr
in
rain 24hr
in
rain mn
in
humidity
%
barometer
mb
20260508044149 38 231 3.5 5.2 0.00 0.00 0.00 93 854.9
20260508043945 38 248 3.5 4.3 0.00 0.00 0.00 93 854.9
20260508043745 38 257 3.5 4.3 0.00 0.00 0.00 93 854.9
20260508043546 38 256 3.5 5.2 0.00 0.00 0.00 94 854.9
20260508043445 38 249 3.5 5.2 0.00 0.00 0.00 94 854.9
20260508043346 38 248 3.5 4.3 0.00 0.00 0.00 94 854.9
20260508043146 38 243 3.5 6.1 0.00 0.00 0.00 94 854.9
20260508042942 38 238 3.5 4.3 0.00 0.00 0.00 94 854.9
20260508042742 38 241 3.5 3.5 0.00 0.00 0.00 94 854.9
20260508042542 38 249 3.5 5.2 0.00 0.00 0.00 94 854.9
20260508042441 39 250 3.5 5.2 0.00 0.00 0.00 94 854.9
20260508042342 39 255 3.5 5.2 0.00 0.00 0.00 94 854.9
20260508042142 39 273 3.5 4.3 0.00 0.00 0.00 94 854.9
20260508041938 39 262 3.5 4.3 0.00 0.00 0.00 94 854.9
20260508041739 39 265 3.5 4.3 0.00 0.00 0.00 94 854.9
20260508041539 39 268 3.5 4.3 0.00 0.00 0.00 94 854.9
20260508041438 39 266 3.5 3.5 0.00 0.00 0.00 94 854.9
20260508041339 39 261 3.5 4.3 0.00 0.00 0.00 94 854.9
20260508041140 39 286 2.6 4.3 0.00 0.00 0.00 94 854.9
20260508040935 39 307 3.5 5.2 0.00 0.00 0.00 94 854.9
20260508040737 39 280 4.3 6.1 0.00 0.00 0.00 94 854.8
20260508040537 39 269 5.2 6.1 0.00 0.00 0.00 94 854.8
20260508040435 39 275 4.3 6.1 0.00 0.00 0.00 94 854.8
20260508040335 39 278 4.3 7.0 0.00 0.00 0.00 94 854.8
20260508040135 39 289 5.2 7.0 0.00 0.00 0.00 94 854.8
20260508035932 39 300 5.2 6.1 0.00 0.00 0.00 94 854.8
20260508035730 39 295 5.2 7.0 0.00 0.00 0.00 94 854.8
20260508035529 39 292 3.5 7.0 0.00 0.00 0.00 94 854.8
20260508035429 39 289 3.5 4.3 0.00 0.00 0.00 94 854.8
20260508035329 39 281 4.3 7.0 0.00 0.00 0.00 94 854.8
20260508035130 39 276 4.3 7.0 0.00 0.00 0.00 94 854.7
20260508034926 39 297 2.6 5.2 0.00 0.00 0.00 94 854.7
20260508034728 39 302 1.7 3.5 0.00 0.00 0.00 93 854.7
20260508034527 39 288 2.6 4.3 0.00 0.00 0.00 93 854.7
20260508034426 39 281 2.6 4.3 0.00 0.00 0.00 93 854.7
20260508034326 39 284 2.6 3.5 0.00 0.00 0.00 93 854.7
20260508034127 39 283 2.6 3.5 0.00 0.00 0.00 93 854.7
20260508033923 39 264 1.7 2.6 0.00 0.00 0.00 93 854.6
20260508033723 39 264 1.7 2.6 0.00 0.00 0.00 93 854.6
20260508033523 39 266 2.6 2.6 0.00 0.00 0.00 93 854.5
20260508033422 39 265 2.6 2.6 0.00 0.00 0.00 93 854.5
20260508033322 38 267 2.6 2.6 0.00 0.00 0.00 93 854.5
20260508033123 38 273 2.6 2.6 0.00 0.00 0.00 93 854.5
20260508032919 38 279 1.7 2.6 0.00 0.00 0.00 92 854.5
20260508032721 38 282 1.7 2.6 0.00 0.00 0.00 92 854.5
20260508032520 39 279 2.6 3.5 0.00 0.00 0.00 92 854.5
20260508032419 39 273 2.6 4.3 0.00 0.00 0.00 92 854.5
20260508032320 39 271 2.6 4.3 0.00 0.00 0.00 92 854.5
20260508032119 39 259 3.5 5.2 0.00 0.00 0.00 92 854.4
20260508031916 38 233 4.3 6.1 0.00 0.00 0.00 92 854.4
20260508031717 38 226 3.5 6.1 0.00 0.00 0.00 93 854.4
20260508031518 38 229 3.5 5.2 0.00 0.00 0.00 93 854.4
20260508031416 38 217 4.3 5.2 0.00 0.00 0.00 93 854.5
20260508031117 38 222 3.5 5.2 0.00 0.00 0.00 93 854.5
20260508030913 38 238 4.3 5.2 0.00 0.00 0.00 93 854.5
20260508030715 38 244 5.2 8.7 0.00 0.00 0.00 93 854.5
20260508030515 38 243 6.1 8.7 0.00 0.00 0.00 93 854.5
20260508030413 38 246 5.2 7.0 0.00 0.00 0.00 93 854.4
20260508030314 38 248 4.3 6.1 0.00 0.00 0.00 93 854.4
20260508030114 38 258 4.3 5.2 0.00 0.00 0.00 93 854.5
20260508025858 39 263 4.3 5.2 0.00 0.00 0.00 93 854.5
20260508025659 39 263 4.3 6.1 0.00 0.00 0.00 93 854.5
20260508025459 39 270 4.3 5.2 0.00 0.00 0.00 93 854.5
20260508025358 39 270 4.3 6.1 0.00 0.00 0.00 93 854.5
20260508025258 39 268 5.2 6.1 0.00 0.00 0.00 93 854.5
20260508025058 39 265 5.2 6.1 0.00 0.00 0.00 94 854.5
20260508024854 39 259 6.1 7.8 0.00 0.00 0.00 93 854.5
20260508024656 39 265 6.1 7.8 0.00 0.00 0.00 93 854.4
20260508024456 39 265 5.2 7.0 0.00 0.00 0.00 94 854.4
20260508024354 39 263 5.2 7.0 0.00 0.00 0.00 94 854.5
20260508024255 39 265 4.3 6.1 0.00 0.00 0.00 94 854.5
20260508024055 39 262 4.3 5.2 0.00 0.00 0.00 94 854.5
20260508023851 39 254 4.3 5.2 0.00 0.00 0.00 93 854.5
20260508023652 39 257 4.3 5.2 0.00 0.00 0.00 93 854.5
20260508023453 39 254 4.3 5.2 0.00 0.00 0.00 94 854.4
20260508023351 39 248 3.5 5.2 0.00 0.00 0.00 93 854.4
20260508023252 39 252 3.5 4.3 0.00 0.00 0.00 93 854.4
20260508023052 39 269 3.5 3.5 0.00 0.00 0.00 93 854.4
20260508022848 39 280 2.6 3.5 0.00 0.00 0.00 94 854.4
20260508022650 39 286 1.7 2.6 0.00 0.00 0.00 93 854.4
20260508022450 39 289 1.7 2.6 0.00 0.00 0.00 93 854.4
20260508022349 39 289 1.7 1.7 0.00 0.00 0.00 93 854.4
20260508022250 39 290 1.7 1.7 0.00 0.00 0.00 93 854.4
20260508022051 39 289 0.9 1.7 0.00 0.00 0.00 93 854.4
20260508021846 39 297 1.7 1.7 0.00 0.00 0.00 93 854.4
20260508021447 39 303 1.7 1.7 0.00 0.00 0.00 93 854.3
20260508021346 39 303 0.9 1.7 0.00 0.00 0.00 93 854.3
20260508021245 39 302 0.9 1.7 0.00 0.00 0.00 93 854.3
20260508021046 39 302 0.9 1.7 0.00 0.00 0.00 93 854.4
20260508020842 39 301 0.9 0.9 0.00 0.00 0.00 93 854.4
20260508020644 39 302 0.9 0.9 0.00 0.00 0.00 93 854.4
20260508020444 39 303 0.9 1.7 0.00 0.00 0.00 93 854.4
20260508020342 39 304 0.9 1.7 0.00 0.00 0.00 93 854.4
20260508020241 39 307 1.7 2.6 0.00 0.00 0.00 93 854.4
20260508020039 39 324 1.7 2.6 0.00 0.00 0.00 93 854.4
20260508015836 39 330 0.9 1.7 0.00 0.00 0.00 93 854.4
20260508015636 39 330 0.9 1.7 0.00 0.00 0.00 93 854.4
20260508015437 39 330 0.9 1.7 0.00 0.00 0.00 93 854.5
20260508015336 39 328 0.9 2.6 0.00 0.00 0.00 93 854.5
20260508015236 39 323 0.9 2.6 0.00 0.00 0.00 93 854.5
20260508015036 39 309 0.9 1.7 0.00 0.00 0.00 93 854.5
20260508014833 39 307 0.9 1.7 0.00 0.00 0.00 93 854.5
20260508014634 39 308 0.9 1.7 0.00 0.00 0.00 93 854.5
20260508014434 39 309 0.9 1.7 0.00 0.00 0.00 93 854.5
20260508014333 39 305 0.9 1.7 0.00 0.00 0.00 93 854.5
20260508014234 39 302 1.7 1.7 0.00 0.00 0.00 93 854.5
20260508014034 39 296 1.7 2.6 0.00 0.00 0.00 93 854.5
20260508013830 39 293 1.7 2.6 0.00 0.00 0.00 93 854.5
20260508013431 39 291 1.7 2.6 0.00 0.00 0.00 93 854.5
20260508013330 39 291 1.7 2.6 0.00 0.00 0.00 93 854.5
20260508013231 39 291 1.7 2.6 0.00 0.00 0.00 93 854.5
20260508013031 39 293 1.7 2.6 0.00 0.00 0.00 93 854.5
20260508012827 39 297 1.7 2.6 0.00 0.00 0.00 93 854.5
20260508012629 39 294 1.7 3.5 0.00 0.00 0.00 93 854.5
20260508012428 39 314 2.6 3.5 0.00 0.00 0.00 93 854.5
20260508012327 39 314 2.6 3.5 0.00 0.00 0.00 93 854.5
20260508012228 39 311 2.6 3.5 0.00 0.00 0.00 93 854.5
20260508011824 39 287 1.7 3.5 0.00 0.00 0.00 93 854.4
20260508011625 39 286 1.7 2.6 0.00 0.00 0.00 93 854.4
20260508011425 39 287 1.7 2.6 0.00 0.00 0.00 93 854.4
20260508011324 39 286 2.6 2.6 0.00 0.00 0.00 93 854.4
20260508011225 39 288 2.6 3.5 0.00 0.00 0.00 93 854.4
20260508011025 39 286 1.7 3.5 0.00 0.00 0.00 93 854.4
20260508010821 39 281 1.7 3.5 0.00 0.00 0.00 93 854.4
20260508010422 39 276 1.7 3.5 0.00 0.00 0.00 93 854.3
20260508010321 39 280 1.7 2.6 0.00 0.00 0.00 93 854.3
20260508010221 39 292 1.7 2.6 0.00 0.00 0.00 93 854.3
20260508010022 39 307 1.7 2.6 0.00 0.00 0.00 93 854.3
20260508005818 39 264 1.7 1.7 0.00 0.00 0.00 93 854.3
20260508005620 39 245 1.7 3.5 0.00 0.00 0.00 93 854.3
20260508005420 39 267 1.7 3.5 0.00 0.00 0.00 93 854.3
20260508005318 39 287 1.7 3.5 0.00 0.00 0.00 93 854.3
20260508005219 39 294 1.7 2.6 0.00 0.00 0.00 93 854.3
20260508005019 39 281 0.9 2.6 0.00 0.00 0.00 93 854.3
20260508004815 39 302 1.7 3.5 0.00 0.00 0.00 93 854.4
20260508004615 39 330 0.9 2.6 0.00 0.00 0.00 93 854.4
20260508004416 39 305 1.7 2.6 0.00 0.00 0.00 93 854.4
20260508004315 39 308 1.7 1.7 0.00 0.00 0.00 93 854.4
20260508004215 39 309 1.7 2.6 0.00 0.00 0.00 93 854.4
20260508003812 40 285 1.7 2.6 0.00 0.00 0.00 93 854.4
20260508003414 40 286 1.7 2.6 0.00 0.00 0.00 93 854.3
20260508003312 40 285 1.7 2.6 0.00 0.00 0.00 93 854.3
20260508003213 40 286 1.7 1.7 0.00 0.00 0.00 93 854.3
20260508003012 40 296 2.6 3.5 0.00 0.00 0.00 93 854.3
20260508002809 40 298 2.6 3.5 0.00 0.00 0.00 93 854.3
20260508002610 40 284 2.6 3.5 0.00 0.00 0.00 93 854.3
20260508002410 40 324 2.6 3.5 0.00 0.00 0.00 93 854.4
20260508002256 40 319 2.6 4.3 0.00 0.00 0.00 93 854.4
20260508002157 40 299 3.5 4.3 0.00 0.00 0.00 93 854.4
20260508001753 40 304 2.6 3.5 0.00 0.00 0.00 93 854.4
20260508001555 40 305 2.6 3.5 0.00 0.00 0.00 93 854.4
20260508001354 40 313 2.6 3.5 0.00 0.00 0.00 93 854.4
20260508001253 40 319 2.6 3.5 0.00 0.00 0.00 93 854.4
20260508001154 40 336 2.6 3.5 0.00 0.00 0.00 93 854.4
20260508000954 40 351 2.6 4.3 0.00 0.00 0.00 93 854.5
20260508000750 40 299 2.6 4.3 0.00 0.00 0.00 93 854.4
20260508000351 40 261 5.2 7.8 0.00 0.00 0.00 93 854.5
20260508000250 40 268 4.3 6.1 0.00 0.00 0.00 93 854.5
20260507235747 40 268 4.3 6.1 0.00 0.00 0.00 93 854.5
20260507235548 40 291 5.2 6.1 0.00 0.00 0.00 93 854.5
20260507235348 40 291 4.3 5.2 0.00 0.00 0.00 93 854.5
20260507235247 40 284 4.3 5.2 0.00 0.00 0.00 93 854.5
20260507235148 40 278 5.2 6.1 0.00 0.00 0.00 93 854.4
20260507234948 40 277 6.1 10.4 0.00 0.00 0.00 93 854.4
20260507234744 40 294 6.1 7.0 0.00 0.00 0.00 92 854.4
20260507234546 40 305 4.3 7.0 0.00 0.00 0.00 92 854.5
20260507234346 40 316 3.5 6.1 0.00 0.00 0.00 92 854.5
20260507234244 40 304 4.3 7.8 0.00 0.00 0.00 92 854.5
20260507234146 41 302 5.2 7.8 0.00 0.00 0.00 92 854.5
20260507233741 41 286 5.2 12.2 0.00 0.00 0.00 92 854.4
20260507233541 41 326 4.3 12.2 0.00 0.00 0.00 92 854.4
20260507233342 41 288 4.3 7.0 0.00 0.00 0.00 92 854.5
20260507233241 41 283 4.3 7.0 0.00 0.00 0.00 92 854.5
20260507233142 41 304 4.3 7.0 0.00 0.00 0.00 92 854.5
20260507232942 41 302 4.3 7.0 0.00 0.00 0.00 92 854.6
20260507232738 41 275 5.2 7.0 0.00 0.00 0.00 92 854.5
20260507232539 41 288 4.3 7.0 0.00 0.00 0.00 92 854.6
20260507232339 41 322 3.5 5.2 0.00 0.00 0.00 92 854.6
20260507232238 41 317 3.5 5.2 0.00 0.00 0.00 92 854.6
20260507231735 42 295 5.2 7.0 0.00 0.00 0.00 92 854.5
20260507231536 42 299 5.2 7.0 0.00 0.00 0.00 92 854.5
20260507231235 42 313 4.3 7.8 0.00 0.00 0.00 92 854.5
20260507231136 42 285 6.1 10.4 0.00 0.00 0.00 92 854.4
20260507230936 42 280 4.3 10.4 0.00 0.00 0.00 92 854.4
20260507230732 42 295 2.6 3.5 0.00 0.00 0.00 92 854.4
20260507230333 42 282 2.6 4.3 0.00 0.00 0.00 92 854.3
20260507230233 42 292 2.6 2.6 0.00 0.00 0.00 92 854.3
20260507230133 42 282 2.6 3.5 0.00 0.00 0.00 92 854.3
20260507225933 42 270 1.7 3.5 0.00 0.00 0.00 92 854.3
20260507225730 42 279 1.7 2.6 0.00 0.00 0.00 92 854.3
20260507225532 42 284 2.6 4.3 0.00 0.00 0.00 92 854.4
20260507225331 42 261 3.5 5.2 0.00 0.00 0.00 92 854.4
20260507225229 42 256 2.6 5.2 0.00 0.00 0.00 92 854.4
20260507224930 42 261 1.7 2.6 0.00 0.00 0.00 92 854.4
20260507224727 42 258 2.6 3.5 0.00 0.00 0.00 92 854.4
20260507224527 42 270 2.6 3.5 0.00 0.00 0.00 92 854.4
20260507224327 42 289 2.6 3.5 0.00 0.00 0.00 92 854.4
20260507224227 42 292 2.6 3.5 0.00 0.00 0.00 92 854.4
20260507223927 42 261 3.5 5.2 0.00 0.00 0.00 92 854.4
20260507223723 42 263 4.3 5.2 0.00 0.00 0.00 92 854.4
20260507223525 42 276 3.5 5.2 0.00 0.00 0.00 92 854.4
20260507223325 42 270 3.5 4.3 0.00 0.00 0.00 91 854.4
20260507223223 42 260 3.5 4.3 0.00 0.00 0.00 91 854.4
20260507223125 42 251 3.5 4.3 0.00 0.00 0.00 91 854.4
20260507222924 42 244 3.5 4.3 0.00 0.00 0.00 91 854.4
20260507222721 42 236 4.3 6.1 0.00 0.00 0.00 91 854.4
20260507222522 42 248 4.3 6.1 0.00 0.00 0.00 92 854.4
20260507222322 42 261 4.3 5.2 0.00 0.00 0.00 92 854.4
20260507222221 42 260 4.3 5.2 0.00 0.00 0.00 92 854.4
20260507221922 43 261 4.3 6.1 0.00 0.00 0.00 92 854.4
20260507221718 43 263 3.5 5.2 0.00 0.00 0.00 92 854.3
20260507221518 43 246 3.5 5.2 0.00 0.00 0.00 92 854.3
20260507221318 43 246 3.5 5.2 0.00 0.00 0.00 92 854.3
20260507221217 43 254 3.5 5.2 0.00 0.00 0.00 92 854.3
20260507220917 43 266 3.5 5.2 0.00 0.00 0.00 92 854.3
20260507220714 43 270 3.5 5.2 0.00 0.00 0.00 92 854.3
20260507220315 43 268 4.3 6.1 0.00 0.00 0.00 92 854.2
20260507220214 43 272 4.3 6.1 0.00 0.00 0.00 92 854.2
20260507215914 43 260 4.3 6.1 0.00 0.00 0.00 92 854.2
20260507215711 43 258 3.5 6.1 0.00 0.00 0.00 92 854.2
20260507215511 43 252 3.5 6.1 0.00 0.00 0.00 92 854.2
20260507215311 43 242 4.3 6.1 0.00 0.00 0.00 91 854.2
20260507215210 43 239 4.3 6.1 0.00 0.00 0.00 91 854.2
20260507215112 43 239 4.3 6.1 0.00 0.00 0.00 91 854.1
20260507214911 43 243 4.3 6.1 0.00 0.00 0.00 91 854.1
20260507214654 43 251 3.5 5.2 0.00 0.00 0.00 91 854.1
20260507214455 43 263 4.3 7.0 0.00 0.00 0.00 91 854.1
20260507214255 43 264 4.3 7.8 0.00 0.00 0.00 91 854.1
20260507214154 43 265 4.3 7.8 0.00 0.00 0.00 91 854.1
20260507214055 43 266 4.3 5.2 0.00 0.00 0.00 91 854.1
20260507213855 43 256 3.5 5.2 0.00 0.00 0.00 91 854.0
20260507213651 43 262 3.5 6.1 0.00 0.00 0.00 91 854.0
20260507213454 43 248 5.2 8.7 0.00 0.00 0.00 91 854.0
20260507213253 43 243 5.2 9.6 0.00 0.00 0.00 91 854.1
20260507213151 43 252 5.2 9.6 0.00 0.00 0.00 91 854.1
20260507213052 43 246 6.1 9.6 0.00 0.00 0.00 91 854.2
20260507212853 43 232 5.2 8.7 0.00 0.00 0.00 91 854.4
20260507212649 43 222 6.1 9.6 0.00 0.00 0.00 91 854.5
20260507212449 43 218 6.1 9.6 0.00 0.00 0.00 91 854.5
20260507212250 43 231 6.1 10.4 0.00 0.00 0.00 91 854.5
20260507212149 43 229 7.0 10.4 0.00 0.00 0.00 91 854.5
20260507212049 43 223 7.0 10.4 0.00 0.00 0.00 91 854.5
20260507211849 43 219 6.1 7.8 0.00 0.00 0.00 91 854.5
20260507211645 43 217 6.1 8.7 0.00 0.00 0.00 91 854.5
20260507211447 43 221 6.1 8.7 0.00 0.00 0.00 91 854.4
20260507211246 43 220 6.1 10.4 0.00 0.00 0.00 91 854.4
20260507211145 43 219 6.1 10.4 0.00 0.00 0.00 91 854.4
20260507211046 43 219 6.1 12.2 0.00 0.00 0.00 91 854.4
20260507210846 43 221 5.2 12.2 0.00 0.00 0.00 91 854.4
20260507210642 43 221 5.2 8.7 0.00 0.00 0.00 91 854.4
20260507210443 43 218 6.1 11.3 0.00 0.00 0.00 91 854.4
20260507210243 43 216 6.1 10.4 0.00 0.00 0.00 91 854.4
20260507210142 43 220 6.1 10.4 0.00 0.00 0.00 91 854.4
20260507210043 43 216 6.1 10.4 0.00 0.00 0.00 91 854.4
20260507205639 43 213 5.2 8.7 0.00 0.00 0.00 91 854.4
20260507205440 43 218 5.2 8.7 0.00 0.00 0.00 91 854.4
20260507205240 43 218 6.1 8.7 0.00 0.00 0.00 91 854.4
20260507205139 43 222 6.1 8.7 0.00 0.00 0.00 91 854.4
20260507205040 43 225 6.1 8.7 0.00 0.00 0.00 91 854.4
20260507204840 43 221 5.2 7.8 0.00 0.00 0.00 91 854.4
20260507204636 43 216 5.2 7.0 0.00 0.00 0.00 91 854.4
20260507204436 43 215 5.2 7.0 0.00 0.00 0.00 91 854.4
20260507204237 43 225 4.3 5.2 0.00 0.00 0.00 91 854.4
20260507204136 43 221 4.3 7.0 0.00 0.00 0.00 91 854.4
20260507204037 43 222 4.3 7.0 0.00 0.00 0.00 91 854.4
20260507203836 43 220 4.3 7.0 0.00 0.00 0.00 91 854.4
20260507203633 43 224 4.3 7.8 0.00 0.00 0.00 91 854.4
20260507203233 43 217 5.2 7.0 0.00 0.00 0.00 90 854.4
20260507203133 43 216 5.2 7.8 0.00 0.00 0.00 91 854.4
20260507203034 43 217 5.2 7.8 0.00 0.00 0.00 91 854.4
20260507202833 43 224 5.2 7.8 0.00 0.00 0.00 90 854.4
20260507202630 43 223 3.5 6.1 0.00 0.00 0.00 90 854.4
20260507202431 43 222 4.3 7.0 0.00 0.00 0.00 90 854.3
20260507202231 43 220 5.2 7.0 0.00 0.00 0.00 90 854.3
20260507202130 43 220 4.3 6.1 0.00 0.00 0.00 90 854.3
20260507202030 43 216 4.3 6.1 0.00 0.00 0.00 90 854.3
20260507201830 43 208 4.3 7.8 0.00 0.00 0.00 90 854.3
20260507201627 43 199 4.3 6.1 0.00 0.00 0.00 90 854.4
20260507201428 43 197 5.2 8.7 0.00 0.00 0.00 90 854.4
20260507201228 43 205 5.2 8.7 0.00 0.00 0.00 90 854.4
20260507201127 43 209 5.2 7.8 0.00 0.00 0.00 90 854.4
20260507201028 43 208 5.2 7.8 0.00 0.00 0.00 90 854.4
20260507200624 43 205 3.5 6.1 0.00 0.00 0.00 90 854.4
20260507200425 43 201 4.3 7.0 0.00 0.00 0.00 90 854.4
20260507200224 43 192 5.2 7.0 0.00 0.00 0.00 90 854.4
20260507200124 43 192 5.2 8.7 0.00 0.00 0.00 90 854.4
20260507200024 43 197 5.2 8.7 0.00 0.00 0.00 90 854.5
20260507195824 43 198 5.2 8.7 0.00 0.00 0.00 90 854.5
20260507195620 43 196 6.1 10.4 0.00 0.00 0.00 90 854.4
20260507195421 43 193 7.0 9.6 0.00 0.00 0.00 90 854.4
20260507195221 43 195 6.1 9.6 0.00 0.00 0.00 90 854.4
20260507195120 43 198 5.2 8.7 0.00 0.00 0.00 90 854.4
20260507195021 43 197 6.1 8.7 0.00 0.00 0.00 90 854.4
20260507194821 43 201 6.1 9.6 0.00 0.00 0.00 90 854.3
20260507194617 43 204 4.3 7.8 0.00 0.00 0.00 90 854.3
20260507194418 43 203 5.2 8.7 0.00 0.00 0.00 89 854.3
20260507194218 43 209 5.2 9.6 0.00 0.00 0.00 89 854.2
20260507194117 43 203 5.2 9.6 0.00 0.00 0.00 89 854.2
20260507194019 43 196 5.2 9.6 0.00 0.00 0.00 89 854.2
20260507193817 43 189 6.1 8.7 0.00 0.00 0.00 89 854.2
20260507193614 43 197 5.2 7.8 0.00 0.00 0.00 89 854.2
20260507193415 43 202 5.2 7.0 0.00 0.00 0.00 89 854.2
20260507193215 43 194 6.1 8.7 0.00 0.00 0.00 89 854.3
20260507193114 43 194 5.2 8.7 0.00 0.00 0.00 89 854.3
20260507193015 43 192 5.2 7.8 0.00 0.00 0.00 89 854.3
20260507192824 43 194 5.2 7.8 0.00 0.00 0.00 89 854.3
20260507192611 43 198 5.2 7.8 0.00 0.00 0.00 89 854.3
20260507192412 43 196 5.2 7.8 0.00 0.00 0.00 89 854.3
20260507192212 43 193 5.2 7.8 0.00 0.00 0.00 89 854.3
20260507192111 43 198 5.2 7.8 0.00 0.00 0.00 89 854.3
20260507192012 43 199 5.2 7.0 0.00 0.00 0.00 89 854.3
20260507191813 43 202 5.2 7.8 0.00 0.00 0.00 89 854.2
20260507191608 43 193 7.0 8.7 0.00 0.00 0.00 89 854.2
20260507191409 43 198 6.1 8.7 0.00 0.00 0.00 89 854.2
20260507191210 43 207 5.2 7.0 0.00 0.00 0.00 89 854.2
20260507191055 43 207 5.2 7.0 0.00 0.00 0.00 89 854.2
20260507190956 43 203 4.3 7.0 0.00 0.00 0.00 89 854.2
20260507190756 43 205 4.3 5.2 0.00 0.00 0.00 89 854.1
20260507190552 43 205 5.2 8.7 0.00 0.00 0.00 89 854.1
20260507190353 43 197 6.1 8.7 0.00 0.00 0.00 89 854.2
20260507190154 43 193 7.0 8.7 0.00 0.00 0.00 89 854.2
20260507190052 43 191 7.0 9.6 0.00 0.00 0.00 89 854.2
20260507185952 43 195 7.0 9.6 0.00 0.00 0.00 88 854.2
20260507185753 43 194 7.0 9.6 0.00 0.00 0.00 88 854.2
20260507185549 42 193 5.2 8.7 0.00 0.00 0.00 88 854.2
20260507185350 42 189 5.2 8.7 0.00 0.00 0.00 88 854.1
20260507185150 42 185 6.1 8.7 0.00 0.00 0.00 87 854.1
20260507185049 42 185 5.2 8.7 0.00 0.00 0.00 87 854.1
20260507184949 42 189 6.1 8.7 0.00 0.00 0.00 87 854.1
20260507184749 42 191 6.1 9.6 0.00 0.00 0.00 87 854.0
20260507184546 42 191 6.1 9.6 0.00 0.00 0.00 87 853.9
20260507184348 42 190 7.0 8.7 0.00 0.00 0.00 87 853.9
20260507184146 42 194 6.1 7.8 0.00 0.00 0.00 87 853.9
20260507184046 42 191 5.2 7.0 0.00 0.00 0.00 87 853.9
20260507183947 42 193 5.2 7.0 0.00 0.00 0.00 87 853.9
20260507183746 42 184 4.3 5.2 0.00 0.00 0.00 87 853.9
20260507183543 42 182 4.3 6.1 0.00 0.00 0.00 87 853.9
20260507183344 42 186 4.3 7.0 0.00 0.00 0.00 87 853.9
20260507183143 42 182 5.2 6.1 0.00 0.00 0.00 87 853.9
20260507183043 42 180 5.2 6.1 0.00 0.00 0.00 87 853.9
20260507182944 42 182 5.2 7.0 0.00 0.00 0.00 88 853.9
20260507182743 42 185 5.2 7.0 0.00 0.00 0.00 88 853.9
20260507182540 42 183 4.3 6.1 0.00 0.00 0.00 88 853.8
20260507182341 42 185 4.3 6.1 0.00 0.00 0.00 88 853.8
20260507182142 42 186 4.3 7.0 0.00 0.00 0.00 88 853.8
20260507182040 42 186 4.3 7.0 0.00 0.00 0.00 87 853.8
20260507181942 42 185 4.3 6.1 0.00 0.00 0.00 87 853.8
20260507181740 42 182 3.5 5.2 0.00 0.00 0.00 87 853.8
20260507181537 42 188 4.3 7.0 0.00 0.00 0.00 87 853.8
20260507181337 42 194 5.2 7.0 0.00 0.00 0.00 87 853.8
20260507181138 42 194 5.2 7.0 0.00 0.00 0.00 87 853.7
20260507181037 42 195 5.2 7.0 0.00 0.00 0.00 87 853.7
20260507180938 43 195 5.2 7.0 0.00 0.00 0.00 87 853.7
20260507180738 43 209 4.3 6.1 0.00 0.00 0.00 87 853.7
20260507180533 43 216 3.5 6.1 0.00 0.00 0.00 87 853.7
20260507180335 43 203 3.5 6.1 0.00 0.00 0.00 87 853.6
20260507180135 43 199 3.5 5.2 0.00 0.00 0.00 88 853.6
20260507180034 43 201 3.5 5.2 0.00 0.00 0.00 88 853.6
20260507175935 43 202 3.5 5.2 0.00 0.00 0.00 88 853.6
20260507175734 43 197 4.3 5.2 0.00 0.00 0.00 88 853.6
20260507175531 44 194 5.2 7.8 0.00 0.00 0.00 88 853.6
20260507175331 44 194 6.1 8.7 0.00 0.00 0.00 88 853.6
20260507175131 44 196 7.0 9.6 0.00 0.00 0.00 88 853.6
20260507175031 44 195 7.0 9.6 0.00 0.00 0.00 88 853.6
20260507174931 43 192 7.0 9.6 0.00 0.00 0.00 88 853.6
20260507174731 43 194 5.2 9.6 0.00 0.00 0.00 88 853.5
20260507174528 43 185 5.2 7.8 0.00 0.00 0.00 88 853.5
20260507174329 43 183 5.2 7.0 0.00 0.00 0.00 88 853.5
20260507174129 43 192 6.1 8.7 0.00 0.00 0.00 88 853.6
20260507174027 43 197 5.2 8.7 0.00 0.00 0.00 88 853.6
20260507173929 43 196 6.1 8.7 0.00 0.00 0.00 88 853.6
20260507173728 43 187 7.0 9.6 0.00 0.00 0.00 88 853.6
20260507173524 43 191 6.1 9.6 0.00 0.00 0.00 88 853.6
20260507173325 43 189 5.2 9.6 0.00 0.00 0.00 88 853.6
20260507173125 43 186 5.2 7.0 0.00 0.00 0.00 88 853.6
20260507173024 43 188 5.2 7.0 0.00 0.00 0.00 88 853.6
20260507172925 43 188 5.2 7.0 0.00 0.00 0.00 88 853.6
20260507172725 43 187 5.2 6.1 0.00 0.00 0.00 88 853.6
20260507172521 43 192 5.2 7.8 0.00 0.00 0.00 88 853.6
20260507172323 43 192 4.3 7.8 0.00 0.00 0.00 88 853.6
20260507172122 43 191 5.2 6.1 0.00 0.00 0.00 88 853.6
20260507172021 43 189 4.3 6.1 0.00 0.00 0.00 88 853.6
20260507171723 43 194 4.3 6.1 0.00 0.00 0.00 88 853.5
20260507171518 43 189 3.5 5.2 0.00 0.00 0.00 88 853.5
20260507171321 43 193 3.5 5.2 0.00 0.00 0.00 88 853.5
20260507171119 43 189 3.5 5.2 0.00 0.00 0.00 88 853.5
20260507171018 43 187 3.5 5.2 0.00 0.00 0.00 88 853.5
20260507170919 43 189 3.5 5.2 0.00 0.00 0.00 88 853.5
20260507170719 43 187 4.3 6.1 0.00 0.00 0.00 88 853.5
20260507170515 43 183 4.3 6.1 0.00 0.00 0.00 88 853.5
20260507170316 43 192 4.3 6.1 0.00 0.00 0.00 88 853.5
20260507170117 43 193 4.3 6.1 0.00 0.00 0.00 88 853.5
20260507170015 43 200 3.5 6.1 0.00 0.00 0.00 88 853.5
20260507165716 43 221 3.5 5.2 0.00 0.00 0.00 88 853.4
20260507165512 43 230 3.5 5.2 0.00 0.00 0.00 88 853.4
20260507165313 43 233 3.5 5.2 0.00 0.00 0.00 88 853.4
20260507165012 44 262 2.6 3.5 0.00 0.00 0.00 88 853.4
20260507164913 44 271 2.6 3.5 0.00 0.00 0.00 88 853.4
20260507164713 44 270 2.6 3.5 0.00 0.00 0.00 88 853.4
20260507164509 44 243 3.5 6.1 0.00 0.00 0.00 87 853.4
20260507164310 44 225 4.3 7.0 0.00 0.00 0.00 88 853.4
20260507164110 44 243 5.2 7.8 0.00 0.00 0.00 88 853.4
20260507164009 44 263 4.3 7.8 0.00 0.00 0.00 88 853.4
20260507163911 45 279 3.5 7.8 0.00 0.00 0.00 87 853.3
20260507163710 45 245 4.3 6.1 0.00 0.00 0.00 87 853.3
20260507163453 45 193 4.3 6.1 0.00 0.00 0.00 87 853.4
20260507162953 45 214 4.3 8.7 0.00 0.00 0.00 87 853.3
20260507162855 45 210 4.3 8.7 0.00 0.00 0.00 87 853.3
20260507162654 45 203 3.5 7.0 0.00 0.00 0.00 87 853.3
20260507162450 45 209 3.5 6.1 0.00 0.00 0.00 87 853.2
20260507162251 45 200 3.5 7.0 0.00 0.00 0.00 87 853.2
20260507162052 45 205 5.2 7.8 0.00 0.00 0.00 87 853.2
20260507161950 45 212 4.3 7.8 0.00 0.00 0.00 87 853.2
20260507161850 45 207 5.2 7.8 0.00 0.00 0.00 87 853.2
20260507161651 45 203 5.2 7.8 0.00 0.00 0.00 87 853.2
20260507161447 45 207 5.2 7.8 0.00 0.00 0.00 87 853.2
20260507161248 45 210 6.1 7.8 0.00 0.00 0.00 87 853.2
20260507161049 45 213 6.1 8.7 0.00 0.00 0.00 87 853.3
20260507160947 45 214 5.2 8.7 0.00 0.00 0.00 87 853.3
20260507160849 45 215 5.2 8.7 0.00 0.00 0.00 87 853.3
20260507160648 45 228 4.3 7.0 0.00 0.00 0.00 87 853.3
20260507160444 45 219 3.5 8.7 0.00 0.00 0.00 87 853.3
20260507160245 45 209 3.5 6.1 0.00 0.00 0.00 87 853.3
20260507160045 46 196 4.3 6.1 0.00 0.00 0.00 87 853.3
20260507155944 46 203 4.3 7.0 0.00 0.00 0.00 86 853.3
20260507155844 46 206 4.3 7.0 0.00 0.00 0.00 86 853.3
20260507155645 46 203 5.2 7.0 0.00 0.00 0.00 86 853.2
20260507155441 46 201 5.2 8.7 0.00 0.00 0.00 86 853.2
20260507155243 46 197 3.5 7.8 0.00 0.00 0.00 86 853.2
20260507155042 46 191 4.3 7.0 0.00 0.00 0.00 86 853.3
20260507154941 46 199 4.3 7.0 0.00 0.00 0.00 86 853.3
20260507154842 46 200 4.3 7.8 0.00 0.00 0.00 86 853.3
20260507154641 46 208 3.5 7.8 0.00 0.00 0.00 86 853.3
20260507154438 46 215 3.5 7.0 0.00 0.00 0.00 86 853.3
20260507154239 46 209 2.6 7.0 0.00 0.00 0.00 86 853.3
20260507153938 46 205 4.3 7.0 0.00 0.00 0.00 86 853.3
20260507153835 46 200 4.3 7.0 0.00 0.00 0.00 86 853.3
20260507153635 46 194 4.3 7.0 0.00 0.00 0.00 86 853.2
20260507153432 46 186 4.3 7.8 0.00 0.00 0.00 86 853.2
20260507153233 46 189 3.5 5.2 0.00 0.00 0.00 86 853.3
20260507152931 46 198 4.3 7.8 0.00 0.00 0.00 86 853.3
20260507152833 46 197 5.2 7.8 0.00 0.00 0.00 86 853.3
20260507152633 46 199 4.3 6.1 0.00 0.00 0.00 86 853.3
20260507152428 46 199 3.5 6.1 0.00 0.00 0.00 86 853.3
20260507152230 46 194 3.5 6.1 0.00 0.00 0.00 85 853.3
20260507152030 46 192 4.3 5.2 0.00 0.00 0.00 85 853.3
20260507151928 46 192 4.3 7.0 0.00 0.00 0.00 85 853.3
20260507151829 46 191 4.3 7.0 0.00 0.00 0.00 85 853.3
20260507151629 46 196 3.5 6.1 0.00 0.00 0.00 85 853.2
20260507151425 46 199 3.5 6.1 0.00 0.00 0.00 85 853.2
20260507151227 46 197 3.5 6.1 0.00 0.00 0.00 85 853.2
20260507151026 46 197 3.5 5.2 0.00 0.00 0.00 85 853.2
20260507150925 46 195 3.5 5.2 0.00 0.00 0.00 85 853.2
20260507150828 46 191 4.3 6.1 0.00 0.00 0.00 85 853.2
20260507150627 46 196 5.2 6.1 0.00 0.00 0.00 85 853.1
20260507150423 46 200 3.5 5.2 0.00 0.00 0.00 85 853.1
20260507150224 47 204 3.5 5.2 0.00 0.00 0.00 85 853.1
20260507145923 47 201 2.6 5.2 0.00 0.00 0.00 85 853.1
20260507145824 47 199 2.6 5.2 0.00 0.00 0.00 85 853.2
20260507145624 47 194 3.5 6.1 0.00 0.00 0.00 84 853.2
20260507145420 47 197 4.3 6.1 0.00 0.00 0.00 84 853.1
20260507145221 47 207 3.5 4.3 0.00 0.00 0.00 84 853.1
20260507144920 47 208 4.3 6.1 0.00 0.00 0.00 84 853.1
20260507144820 47 207 4.3 6.1 0.00 0.00 0.00 84 853.1
20260507144621 48 204 3.5 5.2 0.00 0.00 0.00 84 853.1
20260507144417 48 208 3.5 5.2 0.00 0.00 0.00 84 853.0
20260507144218 48 208 3.5 5.2 0.00 0.00 0.00 84 852.9
20260507144018 48 205 3.5 5.2 0.00 0.00 0.00 84 852.9
20260507143917 48 211 2.6 4.3 0.00 0.00 0.00 84 852.9
20260507143414 48 216 4.3 6.1 0.00 0.00 0.00 84 852.9
20260507143014 48 208 5.2 7.0 0.00 0.00 0.00 85 852.9
20260507142914 48 208 4.3 7.0 0.00 0.00 0.00 85 852.9
20260507142814 48 213 3.5 7.0 0.00 0.00 0.00 85 852.9
20260507142614 48 208 3.5 6.1 0.00 0.00 0.00 85 852.9
20260507142411 47 212 5.2 8.7 0.00 0.00 0.00 85 852.9
20260507142212 47 216 4.3 7.0 0.00 0.00 0.00 85 852.9
20260507141911 47 206 6.1 8.7 0.00 0.00 0.00 85 852.9
20260507141812 47 205 6.1 8.7 0.00 0.00 0.00 85 852.9
20260507141612 47 205 4.3 7.0 0.00 0.00 0.00 85 852.9
20260507141408 47 216 4.3 7.0 0.00 0.00 0.00 85 852.9
20260507141209 47 209 4.3 7.0 0.00 0.00 0.00 85 852.9
20260507141008 47 197 4.3 7.0 0.00 0.00 0.00 85 852.9
20260507140908 47 194 5.2 7.8 0.00 0.00 0.00 85 853.0
20260507140809 46 196 5.2 7.8 0.00 0.00 0.00 85 853.0
20260507140609 46 197 5.2 7.8 0.00 0.00 0.00 85 853.0
20260507140406 46 190 5.2 7.0 0.00 0.00 0.00 85 853.0
20260507140206 46 193 5.2 7.0 0.00 0.00 0.00 85 853.1
20260507140007 46 194 5.2 7.0 0.00 0.00 0.00 85 853.1
20260507135852 46 192 5.2 7.0 0.00 0.00 0.00 85 853.2
20260507135753 46 193 5.2 7.0 0.00 0.00 0.00 85 853.2
20260507135349 45 192 5.2 7.8 0.00 0.00 0.00 85 853.2
20260507135150 45 193 5.2 8.7 0.00 0.00 0.00 85 853.2
20260507134951 45 193 5.2 7.8 0.00 0.00 0.00 85 853.2
20260507134849 45 192 5.2 7.8 0.00 0.00 0.00 85 853.2
20260507134749 45 194 6.1 7.8 0.00 0.00 0.00 85 853.1
20260507134550 45 194 5.2 7.8 0.00 0.00 0.00 85 853.2
20260507134346 45 190 4.3 6.1 0.00 0.00 0.00 85 853.3
20260507134147 45 197 4.3 6.1 0.00 0.00 0.00 85 853.3
20260507133947 45 194 4.3 6.1 0.00 0.00 0.00 85 853.3
20260507133846 45 189 4.3 6.1 0.00 0.00 0.00 85 853.3
20260507133747 44 195 4.3 7.0 0.00 0.00 0.00 85 853.3
20260507133546 44 198 4.3 7.0 0.00 0.00 0.00 85 853.4
20260507133343 44 195 4.3 6.1 0.00 0.00 0.00 85 853.4
20260507133145 44 196 5.2 8.7 0.00 0.00 0.00 85 853.4
20260507132944 44 192 5.2 7.0 0.00 0.00 0.00 85 853.4
20260507132843 44 192 5.2 7.0 0.00 0.00 0.00 85 853.4
20260507132745 44 189 5.2 7.8 0.00 0.00 0.00 85 853.5
20260507132340 44 190 5.2 9.6 0.00 0.00 0.00 84 853.5
20260507132141 44 185 4.3 7.0 0.00 0.00 0.00 84 853.5
20260507131941 44 180 3.5 7.0 0.00 0.00 0.00 84 853.6
20260507131840 44 177 3.5 7.0 0.00 0.00 0.00 84 853.6
20260507131741 44 178 2.6 4.3 0.00 0.00 0.00 84 853.6
20260507131540 44 177 2.6 4.3 0.00 0.00 0.00 84 853.6
20260507131337 45 178 3.5 5.2 0.00 0.00 0.00 84 853.6
20260507131138 45 186 3.5 6.1 0.00 0.00 0.00 84 853.7
20260507130939 45 170 2.6 4.3 0.00 0.00 0.00 84 853.7
20260507130837 45 166 1.7 4.3 0.00 0.00 0.00 84 853.7
20260507130738 45 174 2.6 5.2 0.00 0.00 0.00 84 853.8
20260507130538 45 193 5.2 8.7 0.00 0.00 0.00 84 853.8
20260507130334 45 190 5.2 8.7 0.00 0.00 0.00 84 853.9
20260507130134 45 191 4.3 7.0 0.00 0.00 0.00 84 853.9
20260507125934 45 194 6.1 9.6 0.00 0.00 0.00 84 853.9
20260507125834 45 196 6.1 9.6 0.00 0.00 0.00 84 853.9
20260507125734 46 199 6.1 9.6 0.00 0.00 0.00 84 853.9
20260507125534 46 205 5.2 7.8 0.00 0.00 0.00 84 853.6
20260507125331 46 204 5.2 7.8 0.00 0.00 0.00 84 853.3
20260507125131 46 211 4.3 7.8 0.00 0.00 0.00 84 853.1
20260507124932 46 207 4.3 5.2 0.00 0.00 0.00 84 852.9
20260507124830 46 208 3.5 5.2 0.00 0.00 0.00 84 852.9
20260507124731 46 205 3.5 7.0 0.00 0.00 0.00 84 852.9
20260507124530 46 197 5.2 7.8 0.00 0.00 0.00 84 852.8
20260507124327 46 200 5.2 8.7 0.00 0.00 0.00 84 852.7
20260507124128 46 198 5.2 7.8 0.00 0.00 0.00 84 852.7
20260507123827 46 190 5.2 9.6 0.00 0.00 0.00 83 852.7
20260507123728 46 193 4.3 7.0 0.00 0.00 0.00 83 852.8
20260507123528 46 204 4.3 6.1 0.00 0.00 0.00 83 852.8
20260507123324 46 195 5.2 7.0 0.00 0.00 0.00 83 853.0
20260507123126 46 196 5.2 8.7 0.00 0.00 0.00 83 853.1
20260507122925 46 204 5.2 8.7 0.00 0.00 0.00 83 853.1
20260507122824 46 209 4.3 7.0 0.00 0.00 0.00 83 853.1
20260507122726 46 214 5.2 7.0 0.00 0.00 0.00 83 853.1
20260507122526 46 218 6.1 7.8 0.00 0.00 0.00 83 853.1
20260507122321 46 218 7.0 9.6 0.00 0.00 0.00 83 853.0
20260507122123 46 230 7.0 9.6 0.00 0.00 0.00 83 853.0
20260507121822 46 228 7.0 11.3 0.00 0.00 0.00 82 853.0
20260507121722 46 228 7.0 11.3 0.00 0.00 0.00 82 853.0
20260507121523 46 228 7.0 10.4 0.00 0.00 0.00 82 853.1
20260507121319 46 219 7.0 10.4 0.00 0.00 0.00 82 853.1
20260507120819 46 217 6.1 7.0 0.00 0.00 0.00 82 853.2
20260507120719 47 219 5.2 7.0 0.00 0.00 0.00 82 853.2
20260507120520 47 218 5.2 8.7 0.00 0.00 0.00 82 853.2
20260507120316 47 221 5.2 8.7 0.00 0.00 0.00 82 853.2
20260507120115 47 237 6.1 8.7 0.00 0.00 0.00 82 853.2
20260507115815 47 220 7.0 12.2 0.00 0.00 0.00 82 853.2
20260507115716 47 220 7.0 12.2 0.00 0.00 0.00 82 853.2
20260507115312 47 215 6.1 8.7 0.00 0.00 0.00 82 853.2
20260507115113 47 211 5.2 8.7 0.00 0.00 0.00 81 853.2
20260507114913 47 220 5.2 7.8 0.00 0.00 0.00 81 853.2
20260507114812 47 219 6.1 10.4 0.00 0.00 0.00 81 853.2
20260507114712 48 219 6.1 10.4 0.00 0.00 0.00 81 853.2
20260507114512 48 223 5.2 7.0 0.00 0.00 0.00 81 853.2
20260507114309 48 220 6.1 9.6 0.00 0.00 0.00 81 853.2
20260507114120 48 219 5.2 8.7 0.00 0.00 0.00 81 853.1
20260507113910 48 227 4.3 6.1 0.00 0.00 0.00 81 853.2
20260507113809 48 224 4.3 7.0 0.00 0.00 0.00 81 853.1
20260507113710 48 222 5.2 7.0 0.00 0.00 0.00 81 853.1
20260507113306 49 228 4.3 6.1 0.00 0.00 0.00 80 853.1
20260507113107 49 230 5.2 7.8 0.00 0.00 0.00 80 853.2
20260507112907 49 234 5.2 8.7 0.00 0.00 0.00 80 853.2
20260507112806 49 229 5.2 8.7 0.00 0.00 0.00 80 853.2
20260507112250 50 229 5.2 7.8 0.00 0.00 0.00 79 853.2
20260507112051 50 232 5.2 7.8 0.00 0.00 0.00 79 853.1
20260507111851 50 236 5.2 7.0 0.00 0.00 0.00 79 853.1
20260507111750 51 240 5.2 7.8 0.00 0.00 0.00 78 853.0
20260507111653 51 239 6.1 7.8 0.00 0.00 0.00 78 853.0
20260507111451 51 234 4.3 7.8 0.00 0.00 0.00 78 853.0
20260507111247 51 234 4.3 6.1 0.00 0.00 0.00 78 853.0
20260507111048 51 258 3.5 5.2 0.00 0.00 0.00 78 853.0
20260507110848 51 240 4.3 7.0 0.00 0.00 0.00 78 853.0
20260507110746 51 233 4.3 7.0 0.00 0.00 0.00 78 853.0
20260507110447 51 217 6.1 8.7 0.00 0.00 0.00 78 852.9
20260507110243 51 219 4.3 8.7 0.00 0.00 0.00 78 852.9
20260507110045 51 225 4.3 7.0 0.00 0.00 0.00 78 852.9
20260507105743 51 233 6.1 9.6 0.00 0.00 0.00 78 852.9
20260507105644 51 234 5.2 7.8 0.00 0.00 0.00 78 852.9
20260507105444 52 241 5.2 7.0 0.00 0.00 0.00 78 852.9
20260507105240 51 233 5.2 9.6 0.00 0.00 0.00 78 852.9
20260507105040 51 232 5.2 9.6 0.00 0.00 0.00 79 852.9
20260507104840 51 233 4.3 6.1 0.00 0.00 0.00 79 852.9
20260507104740 51 226 4.3 5.2 0.00 0.00 0.00 79 852.9
20260507104640 50 224 3.5 5.2 0.00 0.00 0.00 79 852.9
20260507104441 50 220 5.2 7.0 0.00 0.00 0.00 79 853.0
20260507104237 50 230 5.2 7.8 0.00 0.00 0.00 79 853.0
20260507104039 50 246 4.3 5.2 0.00 0.00 0.00 79 853.0
20260507104026 51 223 5.2 8.7 0.00 0.00 0.00 78 852.9
20260507103838 51 226 5.2 8.7 0.00 0.00 0.00 78 852.9
20260507103737 51 223 5.2 8.7 0.00 0.00 0.00 78 852.9
20260507103639 51 222 5.2 8.7 0.00 0.00 0.00 78 852.9
20260507103438 51 225 5.2 7.8 0.00 0.00 0.00 79 852.9
20260507103234 51 234 5.2 7.0 0.00 0.00 0.00 78 852.8
20260507103035 51 230 5.2 7.8 0.00 0.00 0.00 79 852.8
20260507102835 51 225 4.3 7.0 0.00 0.00 0.00 79 852.8
20260507102734 51 228 4.3 7.0 0.00 0.00 0.00 79 852.8
20260507102634 51 225 4.3 7.0 0.00 0.00 0.00 79 852.8
20260507102434 51 221 4.3 7.0 0.00 0.00 0.00 79 852.8
20260507102231 51 236 4.3 6.1 0.00 0.00 0.00 79 852.8
20260507102032 51 217 3.5 6.1 0.00 0.00 0.00 79 852.7
20260507101833 51 214 4.3 7.8 0.00 0.00 0.00 79 852.8
20260507101731 51 225 5.2 7.8 0.00 0.00 0.00 79 852.8
20260507101632 50 228 5.2 7.8 0.00 0.00 0.00 79 852.7
20260507101431 50 232 5.2 7.8 0.00 0.00 0.00 79 852.8
20260507101228 50 236 5.2 7.8 0.00 0.00 0.00 79 852.8
20260507101039 51 229 5.2 7.8 0.00 0.00 0.00 79 852.7
20260507101029 50 232 6.1 8.7 0.00 0.00 0.00 79 852.7
20260507100828 51 230 6.1 8.7 0.00 0.00 0.00 79 852.7
20260507100728 51 229 5.2 7.8 0.00 0.00 0.00 79 852.7
20260507100629 51 232 6.1 10.4 0.00 0.00 0.00 79 852.7
20260507100428 51 229 5.2 10.4 0.00 0.00 0.00 79 852.7
20260507100225 51 235 5.2 7.8 0.00 0.00 0.00 79 852.7
20260507100026 51 238 6.1 8.7 0.00 0.00 0.00 79 852.7
20260507095826 51 239 5.2 8.7 0.00 0.00 0.00 80 852.6
20260507095725 51 237 5.2 7.8 0.00 0.00 0.00 80 852.6
20260507095626 51 243 4.3 6.1 0.00 0.00 0.00 80 852.6
20260507095426 50 238 4.3 7.0 0.00 0.00 0.00 80 852.6
20260507095222 50 234 4.3 7.8 0.00 0.00 0.00 80 852.6
20260507095023 50 235 5.2 7.0 0.00 0.00 0.00 80 852.6
20260507094823 50 225 5.2 7.0 0.00 0.00 0.00 80 852.6
20260507094722 50 237 5.2 7.8 0.00 0.00 0.00 80 852.6
20260507094623 50 242 5.2 7.8 0.00 0.00 0.00 80 852.5
20260507094422 50 239 5.2 8.7 0.00 0.00 0.00 80 852.5
20260507094219 50 239 5.2 8.7 0.00 0.00 0.00 80 852.5
20260507094021 49 235 6.1 8.7 0.00 0.00 0.00 80 852.5
20260507093820 49 247 5.2 7.8 0.00 0.00 0.00 80 852.5
20260507093719 49 248 5.2 7.0 0.00 0.00 0.00 81 852.5
20260507093621 49 244 5.2 7.8 0.00 0.00 0.00 81 852.6
20260507093421 49 228 6.1 8.7 0.00 0.00 0.00 81 852.6
20260507093216 49 231 6.1 8.7 0.00 0.00 0.00 81 852.6
20260507093018 49 240 6.1 9.6 0.00 0.00 0.00 80 852.6
20260507092817 49 235 6.1 12.2 0.00 0.00 0.00 80 852.6
20260507092716 49 241 7.0 12.2 0.00 0.00 0.00 80 852.5
20260507092617 49 242 7.0 12.2 0.00 0.00 0.00 80 852.5
20260507092417 49 237 7.0 7.8 0.00 0.00 0.00 80 852.5
20260507092213 49 241 4.3 7.0 0.00 0.00 0.00 80 852.4
20260507092013 49 240 4.3 9.6 0.00 0.00 0.00 80 852.4
20260507091813 49 244 6.1 9.6 0.00 0.00 0.00 80 852.4
20260507091712 48 244 6.1 8.7 0.00 0.00 0.00 80 852.4
20260507091613 48 243 6.1 8.7 0.00 0.00 0.00 80 852.4
20260507091413 49 241 7.0 10.4 0.00 0.00 0.00 80 852.4
20260507091209 49 242 6.1 7.8 0.00 0.00 0.00 80 852.5
20260507091010 49 234 7.0 10.4 0.00 0.00 0.00 80 852.4
20260507090810 49 233 6.1 9.6 0.00 0.00 0.00 80 852.3
20260507090709 49 234 6.1 8.7 0.00 0.00 0.00 80 852.3
20260507090610 49 237 6.1 9.6 0.00 0.00 0.00 80 852.2
20260507090409 50 246 7.0 9.6 0.00 0.00 0.00 80 852.2
20260507090206 50 250 6.1 9.6 0.00 0.00 0.00 80 852.2
20260507090007 49 234 6.1 7.8 0.00 0.00 0.00 80 852.2
20260507085808 49 230 6.1 7.8 0.00 0.00 0.00 80 852.2
20260507085706 49 234 6.1 7.8 0.00 0.00 0.00 80 852.2
20260507085608 49 235 6.1 9.6 0.00 0.00 0.00 80 852.2
20260507085408 49 244 5.2 9.6 0.00 0.00 0.00 80 852.2
20260507085203 50 245 5.2 7.8 0.00 0.00 0.00 79 852.2
20260507084804 50 241 6.1 10.4 0.00 0.00 0.00 79 852.1
20260507084650 50 241 6.1 10.4 0.00 0.00 0.00 79 852.1
20260507084351 50 236 7.0 9.6 0.00 0.00 0.00 79 852.1
20260507084147 50 230 7.0 9.6 0.00 0.00 0.00 79 852.1
20260507083748 51 242 5.2 10.4 0.00 0.00 0.00 79 851.9
20260507083647 51 243 5.2 10.4 0.00 0.00 0.00 79 851.9
20260507083347 51 236 6.1 12.2 0.00 0.00 0.00 79 851.8
20260507083143 51 246 5.2 11.3 0.00 0.00 0.00 79 851.7
20260507082945 51 244 4.3 7.8 0.00 0.00 0.00 80 851.6
20260507082744 50 236 5.2 7.8 0.00 0.00 0.00 80 851.7
20260507082643 50 235 5.2 10.4 0.00 0.00 0.00 80 851.7
20260507082546 50 232 6.1 10.4 0.00 0.00 0.00 79 851.7
20260507082343 50 224 7.0 11.3 0.00 0.00 0.00 79 851.7
20260507082140 50 216 7.0 11.3 0.00 0.00 0.00 79 851.7
20260507081943 50 213 6.1 9.6 0.00 0.00 0.00 80 851.7
20260507081742 50 218 5.2 8.7 0.00 0.00 0.00 80 851.6
20260507081641 50 226 5.2 9.6 0.00 0.00 0.00 80 851.6
20260507081540 50 227 7.0 10.4 0.00 0.00 0.00 80 851.5
20260507081137 50 238 5.2 8.7 0.00 0.00 0.00 80 851.5
20260507080939 50 243 5.2 9.6 0.00 0.00 0.00 80 851.5
20260507080739 50 238 7.0 9.6 0.00 0.00 0.00 80 851.4
20260507080637 49 236 7.0 10.4 0.00 0.00 0.00 80 851.4
20260507080539 49 235 7.0 10.4 0.00 0.00 0.00 80 851.4
20260507080338 49 218 7.0 11.3 0.00 0.00 0.00 80 851.5
20260507080134 49 221 7.8 11.3 0.00 0.00 0.00 80 851.5
20260507075735 49 215 6.1 13.0 0.00 0.00 0.00 80 851.5
20260507075634 49 212 6.1 13.0 0.00 0.00 0.00 80 851.5
20260507075534 49 218 7.0 13.0 0.00 0.00 0.00 80 851.5
20260507075334 49 222 5.2 12.2 0.00 0.00 0.00 81 851.4
20260507075131 49 230 6.1 11.3 0.00 0.00 0.00 80 851.4
20260507074932 49 230 7.0 11.3 0.00 0.00 0.00 81 851.3
20260507074732 49 222 8.7 13.0 0.00 0.00 0.00 81 851.2
20260507074630 48 216 7.8 13.0 0.00 0.00 0.00 81 851.2
20260507074532 48 216 7.0 12.2 0.00 0.00 0.00 81 851.3
20260507074331 48 213 8.7 13.0 0.00 0.00 0.00 81 851.2
20260507074128 48 218 8.7 13.0 0.00 0.00 0.00 81 851.1
20260507073928 48 210 7.0 10.4 0.00 0.00 0.00 81 851.1
20260507073728 48 203 7.0 13.0 0.00 0.00 0.00 81 851.1
20260507073628 48 211 7.0 13.0 0.00 0.00 0.00 81 851.1
20260507073528 48 215 6.1 13.0 0.00 0.00 0.00 81 851.1
20260507073329 48 214 6.1 13.0 0.00 0.00 0.00 81 851.1
20260507073125 48 209 6.1 10.4 0.00 0.00 0.00 81 851.2
20260507072926 48 210 7.8 12.2 0.00 0.00 0.00 81 851.2
20260507072727 48 203 7.0 12.2 0.00 0.00 0.00 81 851.1
20260507072625 48 209 7.0 12.2 0.00 0.00 0.00 81 851.1
20260507072526 48 203 7.0 12.2 0.00 0.00 0.00 81 851.1
20260507072326 48 202 7.8 12.2 0.00 0.00 0.00 81 851.0
20260507072122 48 209 6.1 12.2 0.00 0.00 0.00 81 850.9
20260507071924 48 201 6.1 9.6 0.00 0.00 0.00 81 850.9
20260507071722 48 214 5.2 10.4 0.00 0.00 0.00 81 850.8
20260507071622 48 212 5.2 10.4 0.00 0.00 0.00 81 850.8
20260507071523 48 208 4.3 8.7 0.00 0.00 0.00 81 850.8
20260507071323 48 183 4.3 7.0 0.00 0.00 0.00 81 850.8
20260507071119 48 185 5.2 9.6 0.00 0.00 0.00 81 850.9
20260507070919 48 189 6.1 12.2 0.00 0.00 0.00 82 850.9
20260507070719 48 199 5.2 11.3 0.00 0.00 0.00 82 850.8
20260507070618 48 202 5.2 8.7 0.00 0.00 0.00 82 850.9
20260507070520 48 193 5.2 8.7 0.00 0.00 0.00 82 850.9
20260507070330 48 230 4.3 8.7 0.00 0.00 0.00 82 850.8
20260507070115 48 220 3.5 8.7 0.00 0.00 0.00 82 850.7
20260507065917 48 234 3.5 7.0 0.00 0.00 0.00 82 850.6
20260507065716 47 233 6.1 9.6 0.00 0.00 0.00 82 850.6
20260507065615 47 231 5.2 9.6 0.00 0.00 0.00 82 850.6
20260507065112 47 203 7.0 11.3 0.00 0.00 0.00 82 850.5
20260507064913 47 204 7.8 13.9 0.00 0.00 0.00 82 850.5
20260507064714 47 207 8.7 13.9 0.00 0.00 0.00 82 850.5
20260507064612 47 200 8.7 13.9 0.00 0.00 0.00 82 850.5
20260507064313 47 201 9.6 16.5 0.00 0.00 0.00 82 850.5
20260507064110 47 206 7.8 13.9 0.00 0.00 0.00 82 850.5
20260507063911 47 206 5.2 10.4 0.00 0.00 0.00 82 850.5
20260507063711 47 210 8.7 19.1 0.00 0.00 0.00 82 850.5
20260507063610 47 206 9.6 19.1 0.00 0.00 0.00 82 850.5
20260507063510 47 208 9.6 13.0 0.00 0.00 0.00 82 850.5
20260507063310 47 207 9.6 13.0 0.00 0.00 0.00 82 850.3
20260507063107 46 199 13.0 19.1 0.00 0.00 0.00 82 850.3
20260507062907 46 203 13.0 19.1 0.00 0.00 0.00 82 850.3
20260507062707 46 199 11.3 15.6 0.00 0.00 0.00 82 850.3
20260507062607 46 201 12.2 19.1 0.00 0.00 0.00 82 850.3
20260507062508 46 197 13.0 19.1 0.00 0.00 0.00 82 850.3
20260507062308 46 193 12.2 18.2 0.00 0.00 0.00 82 850.3
20260507062104 46 194 11.3 17.4 0.00 0.00 0.00 82 850.3
20260507061905 46 191 12.2 17.4 0.00 0.00 0.00 82 850.2
20260507061706 46 191 11.3 20.0 0.00 0.00 0.00 82 850.2
20260507061604 47 191 12.2 20.0 0.00 0.00 0.00 82 850.1
20260507061506 47 193 12.2 16.5 0.00 0.00 0.00 82 850.1
20260507061306 47 198 13.0 18.2 0.00 0.00 0.00 82 850.1
20260507061047 47 198 12.2 15.6 0.00 0.00 0.00 82 850.1
20260507060849 47 203 10.4 15.6 0.00 0.00 0.00 83 850.1
20260507060649 46 199 12.2 19.1 0.00 0.00 0.00 83 850.0
20260507060547 46 199 12.2 19.1 0.00 0.00 0.00 83 850.0
20260507060449 46 199 11.3 19.1 0.00 0.00 0.00 83 850.0
20260507060248 46 195 10.4 19.1 0.00 0.00 0.00 83 850.0
20260507060044 46 194 11.3 19.1 0.00 0.00 0.00 83 850.0
20260507055846 46 199 11.3 20.0 0.00 0.00 0.00 83 850.0
20260507055645 46 193 10.4 13.0 0.00 0.00 0.00 83 850.0
20260507055544 46 189 10.4 16.5 0.00 0.00 0.00 83 850.0
20260507055446 46 190 11.3 16.5 0.00 0.00 0.00 83 850.0
20260507055245 46 193 10.4 16.5 0.00 0.00 0.00 83 850.0
20260507055041 46 193 11.3 19.1 0.00 0.00 0.00 83 850.0
20260507054844 46 194 12.2 21.7 0.00 0.00 0.00 83 850.0
20260507054541 46 194 12.2 20.9 0.00 0.00 0.00 82 850.0
20260507054442 46 195 11.3 18.2 0.00 0.00 0.00 83 850.1
20260507054243 46 191 11.3 16.5 0.00 0.00 0.00 83 850.1
20260507054038 45 191 10.4 14.8 0.00 0.00 0.00 83 850.1
20260507053839 45 193 9.6 13.9 0.00 0.00 0.00 83 850.1
20260507053639 46 193 9.6 13.9 0.00 0.00 0.00 83 850.1
20260507053537 46 188 11.3 13.9 0.00 0.00 0.00 83 850.1
20260507053439 46 188 12.2 18.2 0.00 0.00 0.00 83 850.1
20260507053238 46 190 13.0 19.1 0.00 0.00 0.00 83 850.0
20260507053035 46 191 12.2 19.1 0.00 0.00 0.00 83 850.0
20260507052835 46 180 10.4 14.8 0.00 0.00 0.00 83 850.0
20260507052635 46 184 8.7 18.2 0.00 0.00 0.00 83 849.9
20260507052535 46 186 10.4 18.2 0.00 0.00 0.00 83 849.9
20260507052235 46 182 10.4 16.5 0.00 0.00 0.00 83 849.9
20260507052032 46 181 10.4 16.5 0.00 0.00 0.00 83 849.9
20260507051833 46 183 10.4 19.1 0.00 0.00 0.00 83 850.0
20260507051633 46 187 11.3 20.0 0.00 0.00 0.00 83 850.0
20260507051532 46 186 12.2 20.0 0.00 0.00 0.00 84 850.0
20260507051430 45 188 12.2 20.0 0.00 0.00 0.00 84 850.0
20260507051230 45 179 10.4 17.4 0.00 0.00 0.00 84 850.0
20260507051025 45 184 8.7 15.6 0.00 0.00 0.00 84 850.1
20260507050826 45 187 9.6 14.8 0.00 0.00 0.00 84 850.1
20260507050627 45 192 9.6 15.6 0.00 0.00 0.00 84 850.1
20260507050525 45 194 8.7 15.6 0.00 0.00 0.00 84 850.1
20260507050427 45 191 9.6 15.6 0.00 0.00 0.00 84 850.1
20260507050226 45 185 8.7 13.0 0.00 0.00 0.00 84 850.1
20260507050023 45 185 8.7 14.8 0.00 0.00 0.00 84 850.1
20260507045824 45 191 10.4 15.6 0.00 0.00 0.00 84 850.0
20260507045624 45 182 10.4 15.6 0.00 0.00 0.00 84 850.0
20260507045522 45 176 9.6 13.9 0.00 0.00 0.00 84 850.0
20260507045420 45 180 9.6 15.6 0.00 0.00 0.00 83 850.0
20260507045219 45 185 10.4 17.4 0.00 0.00 0.00 84 849.9
20260507045016 45 183 7.8 13.0 0.00 0.00 0.00 84 849.7
20260507044617 45 174 7.8 11.3 0.00 0.00 0.00 84 849.6
20260507044516 45 180 8.7 11.3 0.00 0.00 0.00 84 849.6